Flag for Belgium Weather past 2 weeks in Antwerp, Belgium

Now
73 °F

Passing clouds.


Feels Like: 77 °F
Forecast: 58 / 75 °F
Wind: 8 mph from East

Location: Antwerp / Deurne

Current Time: Sep 16, 2014 at 3:34:30 PM

Latest Report: Sep 16, 2014 at 2:50 PM


Visibility: N/A

Pressure: 29.95 "Hg

Humidity: 53%

Dew point: 55 °F

Location of AntwerpLocation

Historic Weather in Antwerp — Graph

°F

Antwerp temperature yesterday

Maximum temperature yesterday: 73 °F (at 3:20 PM)
Minimum temperature yesterday: 55 °F (at 1:50 AM)
Average temperature yesterday: 63 °F

Past Weeks' High & Low Weather Summary

 TemperatureHumidityPressure
High75 °F (Sep 5, 6:20 PM)100% (Sep 2, 6:20 AM)30.27 "Hg (Sep 2, 6:20 AM)
Low50 °F (Sep 9, 5:50 AM)43% (Sep 8, 5:50 PM)29.92 "Hg (Sep 5, 3:50 PM)
Average63 °F77%30.10 "Hg
* Reported Sep 1 2:20 PM — Sep 16 2:20 PM, Antwerp, Weather by CustomWeather, © 2014

Note: Actual official high and low records may vary slightly from our data, if they occured in-between our weather recording intervals... More about our weather records

Advertising

Antwerp weather history for previous 24 hours

 ConditionsComfort  
Time TempWeatherWind HumidityBarometerVisibility
2:20 PM
Sep 16
73 °FPassing clouds.3 mph61%29.98 "HgN/A
1:50 PM73 °FPassing clouds.6 mph61%29.98 "HgN/A
1:20 PM73 °FPassing clouds.6 mph65%29.98 "HgN/A
12:50 PM72 °FPassing clouds.6 mph69%29.98 "HgN/A
12:20 PM70 °FPassing clouds.6 mph73%29.98 "HgN/A
11:50 AM68 °FPassing clouds.5 mph73%29.98 "HgN/A
11:20 AM68 °FSunny.2 mph78%30.01 "Hg10 mi
10:50 AM66 °FSunny.1 mph83%30.01 "Hg10 mi
10:20 AM63 °FClear.2 mph88%30.01 "Hg6 mi
9:50 AM61 °FFog.3 mph88%30.01 "Hg2 mi
9:20 AM59 °FFog.2 mph88%29.98 "Hg1 mi
8:50 AM55 °FSleet. Cloudy.2 mph94%29.98 "Hg1 mi
8:20 AM54 °FFog.2 mph100%29.98 "Hg0 mi
7:50 AM52 °FFog.2 mph100%29.98 "Hg0 mi
7:20 AM54 °FFog.2 mph94%29.98 "Hg0 mi
6:50 AM52 °FFog.1 mph94%29.98 "Hg0 mi
6:20 AM54 °FFog.1 mph94%29.98 "Hg0 mi
5:50 AM52 °FFog.1 mph100%29.98 "Hg0 mi
5:20 AM52 °FFog.1 mph100%29.98 "Hg0 mi
4:50 AM52 °FFog.1 mph100%29.98 "Hg0 mi
4:20 AM52 °FFog.1 mph100%29.98 "Hg0 mi
3:50 AM57 °FFog.1 mph94%29.98 "Hg0 mi
3:20 AM55 °FFog.1 mph94%29.98 "Hg0 mi
2:50 AM59 °FFog.2 mph94%29.98 "Hg2 mi
2:20 AM59 °FCool.1 mph94%29.98 "Hg2 mi
1:50 AM59 °FFog.2 mph94%29.98 "Hg1 mi
1:20 AM61 °FFog.2 mph88%29.98 "Hg2 mi
12:50 AM61 °FCool.3 mph88%29.98 "Hg3 mi
12:20 AM61 °FCool.3 mph88%29.98 "Hg4 mi
11:50 PM
Sep 15
61 °FCool.2 mph88%29.98 "Hg5 mi
11:20 PM61 °FCool.1 mph83%29.98 "Hg6 mi
10:50 PM61 °FClear.2 mph88%30.01 "Hg10 mi
10:20 PM61 °FClear.3 mph88%30.01 "Hg10 mi
9:50 PM63 °FClear.3 mph83%29.98 "Hg10 mi
9:20 PM64 °FClear.6 mph83%29.98 "Hg10 mi
8:50 PM64 °FSunny.5 mph78%29.98 "Hg10 mi
8:20 PM66 °FSunny.5 mph73%29.98 "Hg10 mi
7:50 PM66 °FPassing clouds.5 mph78%29.98 "HgN/A
7:20 PM68 °FPassing clouds.5 mph73%29.98 "HgN/A
6:50 PM70 °FPassing clouds.5 mph64%29.98 "HgN/A
6:20 PM70 °FPassing clouds.6 mph64%29.98 "HgN/A
5:50 PM70 °FPassing clouds.7 mph60%29.98 "HgN/A
5:20 PM72 °FPassing clouds.7 mph57%29.98 "HgN/A
4:50 PM72 °FPassing clouds.7 mph57%29.98 "HgN/A
4:20 PM73 °FPassing clouds.8 mph57%29.98 "HgN/A
3:50 PM72 °FPassing clouds.9 mph57%29.98 "HgN/A
3:20 PM73 °FPassing clouds.8 mph53%29.98 "HgN/A
Weather by CustomWeather, © 2014

See weather overviewHow to use our weather pages